FFT1019 KPHX-KLAS

Flight info

Callsign FFT1019
Flight time N/A
Altitude 28000
Route ZEPER2 RRSTA ELLDA RKSTR4
Aircraft A20N/M-SDE2E3FGHIRWXY/LB1

Departure

Time 2026-05-06 22:21
Airport Phoenix Sky Harbor International Airport (KPHX)

Arrival

Time N/A
Airport Harry Reid International Airport (KLAS)
Time Latitude Longitude Altitude Speed Heading
2026-05-06 21:52 33.43689 -112.00823 1127 ft 0 kts 270°
2026-05-06 22:09 33.43689 -112.00816 1127 ft 2 kts 270°
2026-05-06 22:09 33.43689 -112.00798 1127 ft 2 kts 270°
2026-05-06 22:09 33.43691 -112.00780 1127 ft 2 kts 240°
2026-05-06 22:10 33.43701 -112.00766 1127 ft 2 kts 208°
2026-05-06 22:10 33.43715 -112.00761 1127 ft 2 kts 176°
2026-05-06 22:10 33.43728 -112.00762 1127 ft 1 kts 205°
2026-05-06 22:10 33.43736 -112.00751 1127 ft 1 kts 266°
2026-05-06 22:11 33.43733 -112.00738 1127 ft 1 kts 322°
2026-05-06 22:11 33.43721 -112.00735 1127 ft 2 kts 12°
2026-05-06 22:11 33.43706 -112.00736 1127 ft 2 kts 356°
2026-05-06 22:11 33.43692 -112.00736 1127 ft 1 kts
2026-05-06 22:12 33.43691 -112.00736 1127 ft 0 kts
2026-05-06 22:14 33.43692 -112.00736 1127 ft 0 kts
2026-05-06 22:15 33.43712 -112.00736 1127 ft 4 kts
2026-05-06 22:15 33.43755 -112.00736 1128 ft 6 kts 360°
2026-05-06 22:15 33.43815 -112.00736 1129 ft 10 kts 359°
2026-05-06 22:15 33.43895 -112.00710 1131 ft 14 kts 64°
2026-05-06 22:16 33.43901 -112.00570 1131 ft 19 kts 90°
2026-05-06 22:16 33.43898 -112.00400 1131 ft 18 kts 124°
2026-05-06 22:16 33.43773 -112.00381 1131 ft 20 kts 179°
2026-05-06 22:16 33.43602 -112.00381 1128 ft 26 kts 180°
2026-05-06 22:17 33.43422 -112.00382 1127 ft 24 kts 180°
2026-05-06 22:17 33.43284 -112.00322 1126 ft 22 kts 94°
2026-05-06 22:17 33.43283 -112.00117 1126 ft 28 kts 90°
2026-05-06 22:17 33.43284 -111.99886 1125 ft 28 kts 90°
2026-05-06 22:18 33.43284 -111.99675 1124 ft 22 kts 90°
2026-05-06 22:18 33.43283 -111.99487 1124 ft 21 kts 90°
2026-05-06 22:18 33.43259 -111.99349 1124 ft 16 kts 157°
2026-05-06 22:18 33.43207 -111.99346 1124 ft 0 kts 181°
2026-05-06 22:19 33.43206 -111.99346 1124 ft 0 kts 181°
2026-05-06 22:20 33.43175 -111.99346 1124 ft 9 kts 180°
2026-05-06 22:20 33.43105 -111.99399 1124 ft 14 kts 263°
2026-05-06 22:20 33.43104 -111.99424 1124 ft 0 kts 269°
2026-05-06 22:20 33.43104 -111.99445 1124 ft 10 kts 269°
2026-05-06 22:21 33.43104 -111.99853 1124 ft 85 kts 270°
2026-05-06 22:21 33.43104 -112.00830 1127 ft 145 kts 270°
2026-05-06 22:21 33.43094 -112.02143 1433 ft 165 kts 270°
2026-05-06 22:21 33.43045 -112.03480 2109 ft 161 kts 262°
2026-05-06 22:22 33.42532 -112.04645 2689 ft 163 kts 218°
2026-05-06 22:22 33.41591 -112.05447 3168 ft 170 kts 224°
2026-05-06 22:22 33.41096 -112.06754 3422 ft 182 kts 274°
2026-05-06 22:22 33.41656 -112.08126 3702 ft 193 kts 319°
2026-05-06 22:23 33.42734 -112.09129 3992 ft 209 kts 317°
2026-05-06 22:23 33.43526 -112.10674 4230 ft 231 kts 283°
2026-05-06 22:23 33.43659 -112.12695 4613 ft 249 kts 268°
2026-05-06 22:23 33.43592 -112.14728 5229 ft 257 kts 268°
2026-05-06 22:24 33.43684 -112.16840 5945 ft 260 kts 287°
2026-05-06 22:24 33.44616 -112.18657 6671 ft 262 kts 320°
2026-05-06 22:24 33.46207 -112.19656 7413 ft 263 kts 349°
2026-05-06 22:24 33.48049 -112.19782 8176 ft 265 kts
2026-05-06 22:25 33.49927 -112.19705 8919 ft 269 kts